Terminal Aerodrome Forecast
Issued by NWS Jacksonville, FL

Home | Current Version | Previous Version | Text Only | Print | Product List | Glossary On
Versions: 1 2 3 4 5 6 7 8 9 10 11 12 13 14 15
291
FTUS42 KJAX 251120
TAFGNV
TAF
KGNV 251120Z 2512/2612 03004KT P6SM FEW020 SCT050
     FM251430 05010G16KT P6SM VCSH SCT030 BKN070
     FM252300 07007KT P6SM FEW040 SCT250=

USA.gov is the U.S. government's official web portal to all federal, state and local government web resources and services.